Beaufort, NC

7:22 AM EDT on September 18, 2019 (GMT -0400)
Smith

Weather History for KMRH - May, 2019

Change the Weather History Date:

Sunday, May 26, 2019

  Actual Average Record
Temperature  
Mean Temperature 80 °F -  
Max Temperature 84 °F 80 °F 96 °F (1953)
Min Temperature 75 °F 62 °F 50 °F (1976)
Cooling Degree Days 14    
Growing Degree Days 30 (Base 50)    
Moisture  
Dew Point 74 °F    
Average Humidity 82    
Maximum Humidity 90    
Minimum Humidity 74    
Precipitation  
Precipitation 0.00 in - - ()
Sea Level Pressure  
Sea Level Pressure 30.07 in    
Wind  
Wind Speed 12 mph (SSW)    
Max Wind Speed 16 mph    
Max Gust Speed -    
Visibility 10 miles    
Events      
Averages and records for this station are not official NWS values.
T = Trace of Precipitation, MM = Missing Value Source: NWS Daily Summary

Daily Weather History Graph

Daily Weather History Graph

Search for Another Location

Airport or City:

Astronomy

May. 26, 2019 Rise Set
Actual Time 5:57 AM EDT 8:10 PM EDT
Civil Twilight 5:28 AM EDT 8:39 PM EDT
Nautical Twilight 4:53 AM EDT 9:14 PM EDT
Astronomical Twilight 4:15 AM EDT 9:52 PM EDT
Moon 1:47 AM EDT (5/26) 12:46 PM EDT (5/26)
Length of Visible Light 15h 11m
Length of Day
14h 13m
Waning Gibbous, 50% of the Moon is Illuminated
May 26
Waning Gibbous
May 26
Last Quarter
Jun 3
New
Jun 10
First Quarter
Jun 17
Full

Hourly Weather History & Observations

Time (EDT) Temp. Heat Index Dew Point Humidity Pressure Visibility Wind Dir Wind Speed Gust Speed Precip Events Conditions
12:58 AM 77.0 °F - 69.1 °F 76% 30.13 in 10.0 mi South 10.4 mph - N/A   Clear
1:58 AM 75.9 °F - 70.0 °F 82% 30.12 in 10.0 mi South 11.5 mph - N/A   Clear
2:58 AM 75.9 °F - 70.0 °F 82% 30.11 in 10.0 mi South 10.4 mph - N/A   Clear
3:58 AM 75.9 °F - 70.0 °F 82% 30.09 in 10.0 mi South 13.8 mph - N/A   Scattered Clouds
4:05 AM 75.9 °F - 70.0 °F 82% 30.08 in 10.0 mi South 11.5 mph - N/A   Mostly Cloudy
4:58 AM 77.0 °F - 71.1 °F 82% 30.09 in 10.0 mi SSW 12.7 mph - N/A   Overcast
5:58 AM 77.0 °F - 72.0 °F 84% 30.10 in 10.0 mi SSW 12.7 mph - N/A   Mostly Cloudy
6:58 AM 77.0 °F - 73.0 °F 88% 30.12 in 10.0 mi SSW 6.9 mph - N/A   Mostly Cloudy
7:58 AM 79.0 °F - 73.9 °F 84% 30.12 in 10.0 mi SSW 10.4 mph - N/A   Overcast
8:58 AM 79.0 °F - 73.9 °F 84% 30.12 in 10.0 mi SSW 12.7 mph - N/A   Overcast
9:04 AM 79.0 °F - 73.9 °F 84% 30.11 in 10.0 mi SSW 10.4 mph - N/A   Overcast
9:28 AM 80.1 °F 85.1 °F 75.0 °F 85% 30.11 in 10.0 mi SSW 15.0 mph - N/A   Mostly Cloudy
9:41 AM 80.1 °F 85.1 °F 75.0 °F 85% 30.11 in 10.0 mi SW 12.7 mph - N/A   Overcast
9:58 AM 81.0 °F 86.7 °F 75.0 °F 82% 30.11 in 10.0 mi SSW 13.8 mph - N/A   Overcast
10:09 AM 82.0 °F 89.4 °F 75.9 °F 82% 30.10 in 10.0 mi SSW 13.8 mph - N/A   Scattered Clouds
10:19 AM 82.9 °F 90.8 °F 75.9 °F 79% 30.10 in 10.0 mi SSW 15.0 mph - N/A   Mostly Cloudy
10:28 AM 82.9 °F 90.8 °F 75.9 °F 79% 30.10 in 10.0 mi SW 11.5 mph - N/A   Scattered Clouds
10:38 AM 82.0 °F 88.6 °F 75.0 °F 79% 30.10 in 10.0 mi SSW 13.8 mph - N/A   Mostly Cloudy
10:43 AM 81.0 °F 86.7 °F 75.0 °F 82% 30.10 in 10.0 mi SW 13.8 mph - N/A   Mostly Cloudy
10:53 AM 80.6 °F 86.2 °F 75.2 °F 84% 30.10 in 10.0 mi SSW 15.0 mph - N/A   Overcast
10:54 AM 81.0 °F 87.3 °F 75.9 °F 85% 30.10 in 10.0 mi SSW 15.0 mph - N/A   Overcast
11:03 AM 81.0 °F 86.7 °F 75.0 °F 82% 30.10 in 10.0 mi SSW 15.0 mph - N/A   Overcast
11:55 AM 82.4 °F 89.5 °F 75.2 °F 79% 30.08 in 10.0 mi SSW 12.7 mph - N/A   Overcast
12:12 PM 82.9 °F 90.8 °F 75.9 °F 79% 30.08 in 10.0 mi SW 15.0 mph - N/A   Overcast
12:22 PM 81.0 °F 87.3 °F 75.9 °F 85% 30.08 in 9.0 mi SSW 13.8 mph - N/A   Overcast
12:58 PM 84.0 °F 92.6 °F 75.9 °F 76% 30.07 in 10.0 mi SW 12.7 mph - N/A   Mostly Cloudy
1:08 PM 84.0 °F 92.6 °F 75.9 °F 76% 30.06 in 10.0 mi SW 15.0 mph - N/A   Scattered Clouds
1:58 PM 84.0 °F 92.6 °F 75.9 °F 76% 30.04 in 10.0 mi SW 15.0 mph - N/A   Clear
2:58 PM 82.9 °F 90.2 °F 75.0 °F 77% 30.02 in 10.0 mi SSW 16.1 mph - N/A   Clear
3:58 PM 84.0 °F 91.9 °F 75.0 °F 74% 30.01 in 10.0 mi SSW 15.0 mph - N/A   Clear
4:58 PM 82.9 °F 90.2 °F 75.0 °F 77% 30.00 in 10.0 mi SW 13.8 mph - N/A   Clear
5:58 PM 82.9 °F 90.2 °F 75.0 °F 77% 29.99 in 10.0 mi SSW 13.8 mph - N/A   Clear
6:58 PM 81.0 °F 86.7 °F 75.0 °F 82% 29.99 in 10.0 mi SW 9.2 mph - N/A   Clear
7:58 PM 79.0 °F - 73.9 °F 84% 29.98 in 9.0 mi SSW 6.9 mph - N/A   Clear
8:58 PM 78.1 °F - 73.9 °F 87% 29.98 in 9.0 mi SW 6.9 mph - N/A   Clear
9:58 PM 78.1 °F - 73.9 °F 87% 29.98 in 9.0 mi SSW 8.1 mph - N/A   Clear
10:58 PM 78.1 °F - 75.0 °F 90% 29.97 in 8.0 mi SW 6.9 mph - N/A   Partly Cloudy
11:58 PM 79.0 °F - 73.9 °F 84% 29.97 in 9.0 mi SW 5.8 mph - N/A   Scattered Clouds